DELTA 1 DEB, 10869

Orbit data source: Space-Track

DELTA 1 DEB, 10869 is space debris in SSO originally from a launch on Thu, 29 Jul 1976 UTC launched from the Air Force Western Test Range (AFWTR). Debris objects in space refer to the collection of defunct objects orbiting the Earth. Examples of debris include non-operational satellites, rocket bodies, and fragments generated from explosions, collisions, or faulty payload assembly.

Loading next visibility...
Identifier
10869, 1976-077CX
Orbit
SSO
Country
Flag of USUS
Related business
Manufacturer
Unknown
Mission
Spacecraft
Bus & Motor
Unknown
Mass
Unknown
Launch date (UTC)
1976-07-29 (50 years ago)
Launch vehicle
Unknown
Launch site
Air Force Western Test Range (AFWTR)
Object type
Payload
Rocket body
Debris
Shape & HBR
Unknown shape, 0.1 m
Radar Cross Section
Small (<0.1 m²)

Expand to show TLE details & history
Last TLE update: 7 hours ago

TLE from 7 hours ago
0 DELTA 1 DEB
1 10869U 76077CX  26104.86891028 -.00000045  00000-0  10075-4 0  9993
2 10869 102.2633 236.3116 0026698 267.6917 222.8718 12.43472994253458
Epoch: 2026-04-14T20:51Z
TLE epoch observation values (Epoch: 2026-04-14T20:51:13.848Z)
Latitude
48.22117°
Longitude
-85.52443°
Altitude
1,514.629 km
Speed
7.105 km/s
True Right ascension
04h 41m 17s
True Declination
48° 03' 60"
Sunlit
Object was in daylight at epoch
Visualization orbit readout
Latitude
Unknown
Longitude
Unknown
Altitude
Unknown
Speed
Unknown
Apparent Right ascension
Unknown
Apparent Declination
Unknown
Sunlit
N/A
Visualization observer readout
Local Sidereal Time
10:29:13
Azimuth
Unknown
Elevation
Unknown
Doppler factor
Unknown
Orbital elements
Apogee altitude
1,510.506 km
Perigee altitude
1,468.496 km
Semi-major axis
7,867.638 km
Eccentricity
0.00267
Inclination
102.2633°
RAAN
236.3116°
Arg. of periapsis
267.6917°
True anomaly
222.66416°
Mean anomaly
222.8718°
Eccentric anomaly
222.76793°
Mean motion
3.11012 °/min
Orbital period
115.75 mins
BSTAR
0.000010075
Loading maneuver chart data...
Computing Atmospheric mass density...
Loading historical data...
Loading historical data...
Loading historical data...
Loading historical data...
Loading historical data...
Loading historical data...
Loading historical data...

Documentation

Showing up to 5 results
|